Year,Month,Day,Hour,Minute,Value (Times are PST for temperature in C)
2008,05,24,00,00,10.80
2008,05,24,00,01,10.80
2008,05,24,00,02,10.80
2008,05,24,00,03,10.70
2008,05,24,00,04,10.70
2008,05,24,00,05,10.70
2008,05,24,00,06,10.70
2008,05,24,00,07,10.70
2008,05,24,00,08,10.70
2008,05,24,00,09,10.60
2008,05,24,00,10,10.60
2008,05,24,00,11,10.60
2008,05,24,00,12,10.60
2008,05,24,00,13,10.60
2008,05,24,00,14,10.60
2008,05,24,00,15,10.60
2008,05,24,00,16,10.60
2008,05,24,00,17,10.50
2008,05,24,00,18,10.40
2008,05,24,00,19,10.40
2008,05,24,00,20,10.40
2008,05,24,00,21,10.40
2008,05,24,00,22,10.40
2008,05,24,00,23,10.40
2008,05,24,00,24,10.40
2008,05,24,00,25,10.40
2008,05,24,00,26,10.40
2008,05,24,00,27,10.40
2008,05,24,00,28,10.40
2008,05,24,00,29,10.40
2008,05,24,00,30,10.40
2008,05,24,00,31,10.40
2008,05,24,00,32,10.40
2008,05,24,00,33,10.40
2008,05,24,00,34,10.40
2008,05,24,00,35,10.40
2008,05,24,00,36,10.40
2008,05,24,00,37,10.40
2008,05,24,00,38,10.40
2008,05,24,00,39,10.40
2008,05,24,00,40,10.40
2008,05,24,00,41,10.40
2008,05,24,00,42,10.40
2008,05,24,00,43,10.40
2008,05,24,00,44,10.40
2008,05,24,00,45,10.40
2008,05,24,00,46,10.40
2008,05,24,00,47,10.40
2008,05,24,00,48,10.40
2008,05,24,00,49,10.40
2008,05,24,00,50,10.40
2008,05,24,00,51,10.40
2008,05,24,00,52,10.40
2008,05,24,00,53,10.40
2008,05,24,00,54,10.40
2008,05,24,00,55,10.40
2008,05,24,00,56,10.40
2008,05,24,00,57,10.40
2008,05,24,00,58,10.40
2008,05,24,00,59,10.40
2008,05,24,01,00,10.40
2008,05,24,01,01,10.40
2008,05,24,01,02,10.50
2008,05,24,01,03,10.60
2008,05,24,01,04,10.60
2008,05,24,01,05,10.60
2008,05,24,01,06,10.60
2008,05,24,01,07,10.60
2008,05,24,01,08,10.60
2008,05,24,01,09,10.60
2008,05,24,01,10,10.60
2008,05,24,01,11,10.60
2008,05,24,01,12,10.60
2008,05,24,01,13,10.60
2008,05,24,01,14,10.60
2008,05,24,01,15,10.60
2008,05,24,01,16,10.60
2008,05,24,01,17,10.60
2008,05,24,01,18,10.60
2008,05,24,01,19,10.60
2008,05,24,01,20,10.60
2008,05,24,01,21,10.60
2008,05,24,01,22,10.60
2008,05,24,01,23,10.60
2008,05,24,01,24,10.60
2008,05,24,01,25,10.60
2008,05,24,01,26,10.60
2008,05,24,01,27,10.60
2008,05,24,01,28,10.60
2008,05,24,01,29,10.60
2008,05,24,01,30,10.60
2008,05,24,01,31,10.60
2008,05,24,01,32,10.60
2008,05,24,01,33,10.60
2008,05,24,01,34,10.60
2008,05,24,01,35,10.60
2008,05,24,01,36,10.60
2008,05,24,01,37,10.60
2008,05,24,01,38,10.60
2008,05,24,01,39,10.60
2008,05,24,01,40,10.60
2008,05,24,01,41,10.60
2008,05,24,01,42,10.60
2008,05,24,01,43,10.60
2008,05,24,01,44,10.60
2008,05,24,01,45,10.60
2008,05,24,01,46,10.60
2008,05,24,01,47,10.60
2008,05,24,01,48,10.60
2008,05,24,01,49,10.60
2008,05,24,01,50,10.70
2008,05,24,01,51,10.70
2008,05,24,01,52,10.70
2008,05,24,01,53,10.70
2008,05,24,01,54,10.70
2008,05,24,01,55,10.70
2008,05,24,01,56,10.70
2008,05,24,01,57,10.70
2008,05,24,01,58,10.70
2008,05,24,01,59,10.70
2008,05,24,02,00,10.70
2008,05,24,02,01,10.70
2008,05,24,02,02,10.70
2008,05,24,02,03,10.70
2008,05,24,02,04,10.70
2008,05,24,02,05,10.70
2008,05,24,02,06,10.70
2008,05,24,02,07,10.80
2008,05,24,02,08,10.80
2008,05,24,02,09,10.70
2008,05,24,02,10,10.70
2008,05,24,02,11,10.70
2008,05,24,02,12,10.70
2008,05,24,02,13,10.70
2008,05,24,02,14,10.70
2008,05,24,02,15,10.80
2008,05,24,02,16,10.80
2008,05,24,02,17,10.80
2008,05,24,02,18,10.80
2008,05,24,02,19,10.80
2008,05,24,02,20,10.80
2008,05,24,02,21,10.80
2008,05,24,02,22,10.80
2008,05,24,02,23,10.70
2008,05,24,02,24,10.70
2008,05,24,02,25,10.70
2008,05,24,02,26,10.70
2008,05,24,02,27,10.70
2008,05,24,02,28,10.70
2008,05,24,02,29,10.70
2008,05,24,02,30,10.70
2008,05,24,02,31,10.70
2008,05,24,02,32,10.70
2008,05,24,02,33,10.70
2008,05,24,02,34,10.70
2008,05,24,02,35,10.70
2008,05,24,02,36,10.70
2008,05,24,02,37,10.70
2008,05,24,02,38,10.70
2008,05,24,02,39,10.70
2008,05,24,02,40,10.70
2008,05,24,02,41,10.70
2008,05,24,02,42,10.70
2008,05,24,02,43,10.70
2008,05,24,02,44,10.70
2008,05,24,02,45,10.70
2008,05,24,02,46,10.70
2008,05,24,02,47,10.70
2008,05,24,02,48,10.70
2008,05,24,02,49,10.70
2008,05,24,02,50,10.70
2008,05,24,02,51,10.70
2008,05,24,02,52,10.70
2008,05,24,02,53,10.70
2008,05,24,02,54,10.70
2008,05,24,02,55,10.70
2008,05,24,02,56,10.70
2008,05,24,02,57,10.70
2008,05,24,02,58,10.70
2008,05,24,02,59,10.70
2008,05,24,03,00,10.70
2008,05,24,03,01,10.70
2008,05,24,03,02,10.70
2008,05,24,03,03,10.70
2008,05,24,03,04,10.70
2008,05,24,03,05,10.70
2008,05,24,03,06,10.70
2008,05,24,03,07,10.70
2008,05,24,03,08,10.70
2008,05,24,03,09,10.70
2008,05,24,03,10,10.70
2008,05,24,03,11,10.70
2008,05,24,03,12,10.70
2008,05,24,03,13,10.70
2008,05,24,03,14,10.70
2008,05,24,03,15,10.70
2008,05,24,03,16,10.70
2008,05,24,03,17,10.70
2008,05,24,03,18,10.70
2008,05,24,03,19,10.60
2008,05,24,03,20,10.60
2008,05,24,03,21,10.60
2008,05,24,03,22,10.60
2008,05,24,03,23,10.60
2008,05,24,03,24,10.60
2008,05,24,03,25,10.60
2008,05,24,03,26,10.60
2008,05,24,03,27,10.60
2008,05,24,03,28,10.60
2008,05,24,03,29,10.60
2008,05,24,03,30,10.60
2008,05,24,03,31,10.60
2008,05,24,03,32,10.60
2008,05,24,03,33,10.60
2008,05,24,03,34,10.60
2008,05,24,03,35,10.60
2008,05,24,03,36,10.60
2008,05,24,03,37,10.50
2008,05,24,03,38,10.40
2008,05,24,03,39,10.40
2008,05,24,03,40,10.40
2008,05,24,03,41,10.40
2008,05,24,03,42,10.40
2008,05,24,03,43,10.40
2008,05,24,03,44,10.40
2008,05,24,03,45,10.40
2008,05,24,03,46,10.40
2008,05,24,03,47,10.40
2008,05,24,03,48,10.40
2008,05,24,03,49,10.40
2008,05,24,03,50,10.40
2008,05,24,03,51,10.40
2008,05,24,03,52,10.40
2008,05,24,03,53,10.30
2008,05,24,03,54,10.30
2008,05,24,03,55,10.30
2008,05,24,03,56,10.30
2008,05,24,03,57,10.30
2008,05,24,03,58,10.30
2008,05,24,03,59,10.30
2008,05,24,04,00,10.30
2008,05,24,04,01,10.30
2008,05,24,04,02,10.30
2008,05,24,04,03,10.30
2008,05,24,04,04,10.30
2008,05,24,04,05,10.30
2008,05,24,04,06,10.30
2008,05,24,04,07,10.30
2008,05,24,04,08,10.30
2008,05,24,04,09,10.30
2008,05,24,04,10,10.30
2008,05,24,04,11,10.30
2008,05,24,04,12,10.30
2008,05,24,04,13,10.30
2008,05,24,04,14,10.30
2008,05,24,04,15,10.30
2008,05,24,04,16,10.30
2008,05,24,04,17,10.30
2008,05,24,04,18,10.30
2008,05,24,04,19,10.30
2008,05,24,04,20,10.30
2008,05,24,04,21,10.30
2008,05,24,04,22,10.30
2008,05,24,04,23,10.30
2008,05,24,04,24,10.30
2008,05,24,04,25,10.30
2008,05,24,04,26,10.30
2008,05,24,04,27,10.30
2008,05,24,04,28,10.30
2008,05,24,04,29,10.30
2008,05,24,04,30,10.30
2008,05,24,04,31,10.40
2008,05,24,04,32,10.40
2008,05,24,04,33,10.40
2008,05,24,04,34,10.40
2008,05,24,04,35,10.40
2008,05,24,04,36,10.40
2008,05,24,04,37,10.40
2008,05,24,04,38,10.40
2008,05,24,04,39,10.40
2008,05,24,04,40,10.40
2008,05,24,04,41,10.40
2008,05,24,04,42,10.40
2008,05,24,04,43,10.40
2008,05,24,04,44,10.40
2008,05,24,04,45,10.40
2008,05,24,04,46,10.40
2008,05,24,04,47,10.50
2008,05,24,04,48,10.60
2008,05,24,04,49,10.60
2008,05,24,04,50,10.60
2008,05,24,04,51,10.60
2008,05,24,04,52,10.60
2008,05,24,04,53,10.60
2008,05,24,04,54,10.60
2008,05,24,04,55,10.60
2008,05,24,04,56,10.60
2008,05,24,04,57,10.60
2008,05,24,04,58,10.60
2008,05,24,04,59,10.70
2008,05,24,05,00,10.70
2008,05,24,05,01,10.70
2008,05,24,05,02,10.70
2008,05,24,05,03,10.70
2008,05,24,05,04,10.70
2008,05,24,05,05,10.70
2008,05,24,05,06,10.70
2008,05,24,05,07,10.70
2008,05,24,05,08,10.70
2008,05,24,05,09,10.70
2008,05,24,05,10,10.70
2008,05,24,05,11,10.70
2008,05,24,05,12,10.70
2008,05,24,05,13,10.70
2008,05,24,05,14,10.80
2008,05,24,05,15,10.80
2008,05,24,05,16,10.80
2008,05,24,05,17,10.80
2008,05,24,05,18,10.80
2008,05,24,05,19,10.80
2008,05,24,05,20,10.80
2008,05,24,05,21,10.80
2008,05,24,05,22,10.80
2008,05,24,05,23,10.80
2008,05,24,05,24,10.80
2008,05,24,05,25,10.80
2008,05,24,05,26,10.80
2008,05,24,05,27,10.90
2008,05,24,05,28,10.90
2008,05,24,05,29,10.90
2008,05,24,05,30,10.90
2008,05,24,05,31,10.90
2008,05,24,05,32,10.90
2008,05,24,05,33,10.90
2008,05,24,05,34,10.90
2008,05,24,05,35,10.90
2008,05,24,05,36,10.90
2008,05,24,05,37,10.90
2008,05,24,05,38,10.90
2008,05,24,05,39,10.90
2008,05,24,05,40,10.90
2008,05,24,05,41,10.90
2008,05,24,05,42,10.90
2008,05,24,05,43,10.90
2008,05,24,05,44,10.90
2008,05,24,05,45,10.90
2008,05,24,05,46,10.90
2008,05,24,05,47,10.90
2008,05,24,05,48,10.90
2008,05,24,05,49,10.90
2008,05,24,05,50,10.90
2008,05,24,05,51,10.90
2008,05,24,05,52,10.90
2008,05,24,05,53,10.90
2008,05,24,05,54,10.90
2008,05,24,05,55,10.90
2008,05,24,05,56,10.90
2008,05,24,05,57,10.90
2008,05,24,05,58,10.90
2008,05,24,05,59,10.90
2008,05,24,06,00,10.90
2008,05,24,06,01,10.90
2008,05,24,06,02,10.90
2008,05,24,06,03,10.90
2008,05,24,06,04,11.00
2008,05,24,06,05,11.10
2008,05,24,06,06,11.10
2008,05,24,06,07,11.10
2008,05,24,06,08,11.10
2008,05,24,06,09,11.10
2008,05,24,06,10,11.10
2008,05,24,06,11,11.10
2008,05,24,06,12,11.10
2008,05,24,06,13,11.10
2008,05,24,06,14,11.10
2008,05,24,06,15,11.20
2008,05,24,06,16,11.20
2008,05,24,06,17,11.20
2008,05,24,06,18,11.20
2008,05,24,06,19,11.30
2008,05,24,06,20,11.30
2008,05,24,06,21,11.30
2008,05,24,06,22,11.30
2008,05,24,06,23,11.30
2008,05,24,06,24,11.30
2008,05,24,06,25,11.40
2008,05,24,06,26,11.40
2008,05,24,06,27,11.40
2008,05,24,06,28,11.40
2008,05,24,06,29,11.40
2008,05,24,06,30,11.40
2008,05,24,06,31,11.40
2008,05,24,06,32,11.40
2008,05,24,06,33,11.40
2008,05,24,06,34,11.40
2008,05,24,06,35,11.40
2008,05,24,06,36,11.40
2008,05,24,06,37,11.40
2008,05,24,06,38,11.40
2008,05,24,06,39,11.40
2008,05,24,06,40,11.40
2008,05,24,06,41,11.40
2008,05,24,06,42,11.40
2008,05,24,06,43,11.40
2008,05,24,06,44,11.30
2008,05,24,06,45,11.20
2008,05,24,06,46,11.00
2008,05,24,06,47,10.80
2008,05,24,06,48,10.60
2008,05,24,06,49,10.50
2008,05,24,06,50,10.30
2008,05,24,06,51,10.30
2008,05,24,06,52,10.20
2008,05,24,06,53,10.20
2008,05,24,06,54,10.20
2008,05,24,06,55,10.20
2008,05,24,06,56,10.20
2008,05,24,06,57,10.20
2008,05,24,06,58,10.20
2008,05,24,06,59,10.20
2008,05,24,07,00,10.20
2008,05,24,07,01,10.20
2008,05,24,07,02,10.30
2008,05,24,07,03,10.30
2008,05,24,07,04,10.30
2008,05,24,07,05,10.30
2008,05,24,07,06,10.30
2008,05,24,07,07,10.30
2008,05,24,07,08,10.30
2008,05,24,07,09,10.40
2008,05,24,07,10,10.40
2008,05,24,07,11,10.40
2008,05,24,07,12,10.40
2008,05,24,07,13,10.40
2008,05,24,07,14,10.40
2008,05,24,07,15,10.50
2008,05,24,07,16,10.60
2008,05,24,07,17,10.60
2008,05,24,07,18,10.60
2008,05,24,07,19,10.60
2008,05,24,07,20,10.60
2008,05,24,07,21,10.60
2008,05,24,07,22,10.60
2008,05,24,07,23,10.60
2008,05,24,07,24,10.70
2008,05,24,07,25,10.70
2008,05,24,07,26,10.70
2008,05,24,07,27,10.80
2008,05,24,07,28,10.80
2008,05,24,07,29,10.80
2008,05,24,07,30,10.90
2008,05,24,07,31,10.90
2008,05,24,07,32,10.90
2008,05,24,07,33,10.90
2008,05,24,07,34,10.90
2008,05,24,07,35,11.00
2008,05,24,07,36,11.10
2008,05,24,07,37,11.10
2008,05,24,07,38,11.10
2008,05,24,07,39,11.10
2008,05,24,07,40,11.10
2008,05,24,07,41,11.20
2008,05,24,07,42,11.20
2008,05,24,07,43,11.30
2008,05,24,07,44,11.30
2008,05,24,07,45,11.40
2008,05,24,07,46,11.40
2008,05,24,07,47,11.40
2008,05,24,07,48,11.40
2008,05,24,07,49,11.50
2008,05,24,07,50,11.60
2008,05,24,07,51,11.60
2008,05,24,07,52,11.60
2008,05,24,07,53,11.60
2008,05,24,07,54,11.60
2008,05,24,07,55,11.60
2008,05,24,07,56,11.60
2008,05,24,07,57,11.70
2008,05,24,07,58,11.70
2008,05,24,07,59,11.60
2008,05,24,08,00,11.60
2008,05,24,08,01,11.40
2008,05,24,08,02,11.40
2008,05,24,08,03,11.40
2008,05,24,08,04,11.30
2008,05,24,08,05,11.30
2008,05,24,08,06,11.20
2008,05,24,08,07,11.20
2008,05,24,08,08,11.20
2008,05,24,08,09,11.10
2008,05,24,08,10,11.10
2008,05,24,08,11,11.10
2008,05,24,08,12,11.10
2008,05,24,08,13,11.10
2008,05,24,08,14,11.10
2008,05,24,08,15,11.10
2008,05,24,08,16,11.10
2008,05,24,08,17,11.20
2008,05,24,08,18,11.20
2008,05,24,08,19,11.20
2008,05,24,08,20,11.30
2008,05,24,08,21,11.30
2008,05,24,08,22,11.30
2008,05,24,08,23,11.40
2008,05,24,08,24,11.40
2008,05,24,08,25,11.40
2008,05,24,08,26,11.50
2008,05,24,08,27,11.60
2008,05,24,08,28,11.60
2008,05,24,08,29,11.60
2008,05,24,08,30,11.60
2008,05,24,08,31,11.70
2008,05,24,08,32,11.80
2008,05,24,08,33,11.80
2008,05,24,08,34,11.80
2008,05,24,08,35,11.80
2008,05,24,08,36,11.90
2008,05,24,08,37,11.90
2008,05,24,08,38,11.90
2008,05,24,08,39,12.00
2008,05,24,08,40,12.00
2008,05,24,08,41,12.10
2008,05,24,08,42,12.20
2008,05,24,08,43,12.20
2008,05,24,08,44,12.30
2008,05,24,08,45,12.30
2008,05,24,08,46,12.40
2008,05,24,08,47,12.50
2008,05,24,08,48,12.50
2008,05,24,08,49,12.60
2008,05,24,08,50,12.70
2008,05,24,08,51,12.70
2008,05,24,08,52,12.80
2008,05,24,08,53,12.90
2008,05,24,08,54,13.00
2008,05,24,08,55,13.00
2008,05,24,08,56,13.10
2008,05,24,08,57,13.10
2008,05,24,08,58,13.20
2008,05,24,08,59,13.30
2008,05,24,09,00,13.30
2008,05,24,09,01,13.30
2008,05,24,09,02,13.30
2008,05,24,09,03,13.40
2008,05,24,09,04,13.40
2008,05,24,09,05,13.50
2008,05,24,09,06,13.50
2008,05,24,09,07,13.60
2008,05,24,09,08,13.60
2008,05,24,09,09,13.60
2008,05,24,09,10,13.70
2008,05,24,09,11,13.70
2008,05,24,09,12,13.70
2008,05,24,09,13,13.80
2008,05,24,09,14,13.80
2008,05,24,09,15,13.80
2008,05,24,09,16,13.90
2008,05,24,09,17,13.90
2008,05,24,09,18,13.90
2008,05,24,09,19,13.90
2008,05,24,09,20,14.00
2008,05,24,09,21,14.00
2008,05,24,09,22,14.00
2008,05,24,09,23,14.00
2008,05,24,09,24,14.00
2008,05,24,09,25,14.00
2008,05,24,09,26,13.70
2008,05,24,09,27,13.50
2008,05,24,09,28,13.30
2008,05,24,09,29,13.20
2008,05,24,09,30,13.10
2008,05,24,09,31,13.10
2008,05,24,09,32,13.10
2008,05,24,09,33,13.10
2008,05,24,09,34,13.20
2008,05,24,09,35,13.20
2008,05,24,09,36,13.30
2008,05,24,09,37,13.30
2008,05,24,09,38,13.30
2008,05,24,09,39,13.40
2008,05,24,09,40,13.50
2008,05,24,09,41,13.60
2008,05,24,09,42,13.70
2008,05,24,09,43,13.70
2008,05,24,09,44,13.80
2008,05,24,09,45,13.80
2008,05,24,09,46,13.90
2008,05,24,09,47,14.00
2008,05,24,09,48,14.00
2008,05,24,09,49,14.10
2008,05,24,09,50,14.20
2008,05,24,09,51,14.20
2008,05,24,09,52,14.30
2008,05,24,09,53,14.40
2008,05,24,09,54,14.50
2008,05,24,09,55,14.50
2008,05,24,09,56,14.60
2008,05,24,09,57,14.70
2008,05,24,09,58,14.80
2008,05,24,09,59,14.90
2008,05,24,10,00,15.00
2008,05,24,10,01,15.10
2008,05,24,10,02,15.20
2008,05,24,10,03,15.30
2008,05,24,10,04,15.40
2008,05,24,10,05,15.60
2008,05,24,10,06,15.70
2008,05,24,10,07,15.80
2008,05,24,10,08,15.80
2008,05,24,10,09,15.80
2008,05,24,10,10,15.80
2008,05,24,10,11,15.80
2008,05,24,10,12,15.70
2008,05,24,10,13,15.70
2008,05,24,10,14,15.70
2008,05,24,10,15,15.80
2008,05,24,10,16,15.80
2008,05,24,10,17,16.00
2008,05,24,10,18,16.10
2008,05,24,10,19,16.20
2008,05,24,10,20,16.30
2008,05,24,10,21,16.40
2008,05,24,10,22,16.50
2008,05,24,10,23,16.30
2008,05,24,10,24,16.20
2008,05,24,10,25,16.10
2008,05,24,10,26,16.10
2008,05,24,10,27,16.10
2008,05,24,10,28,16.20
2008,05,24,10,29,16.30
2008,05,24,10,30,16.40
2008,05,24,10,31,16.40
2008,05,24,10,32,16.40
2008,05,24,10,33,16.40
2008,05,24,10,34,16.20
2008,05,24,10,35,16.00
2008,05,24,10,36,15.80
2008,05,24,10,37,15.80
2008,05,24,10,38,15.80
2008,05,24,10,39,15.70
2008,05,24,10,40,15.50
2008,05,24,10,41,15.30
2008,05,24,10,42,14.90
2008,05,24,10,43,14.60
2008,05,24,10,44,14.40
2008,05,24,10,45,14.20
2008,05,24,10,46,14.00
2008,05,24,10,47,13.90
2008,05,24,10,48,13.80
2008,05,24,10,49,13.60
2008,05,24,10,50,13.50
2008,05,24,10,51,13.50
2008,05,24,10,52,13.60
2008,05,24,10,53,13.80
2008,05,24,10,54,13.90
2008,05,24,10,55,14.00
2008,05,24,10,56,14.00
2008,05,24,10,57,14.10
2008,05,24,10,58,14.10
2008,05,24,10,59,14.10
2008,05,24,11,00,14.20
2008,05,24,11,01,14.30
2008,05,24,11,02,14.50
2008,05,24,11,03,14.70
2008,05,24,11,04,14.90
2008,05,24,11,05,14.90
2008,05,24,11,06,15.00
2008,05,24,11,07,15.10
2008,05,24,11,08,15.20
2008,05,24,11,09,15.30
2008,05,24,11,10,15.40
2008,05,24,11,11,15.40
2008,05,24,11,12,15.50
2008,05,24,11,13,15.60
2008,05,24,11,14,15.50
2008,05,24,11,15,15.40
2008,05,24,11,16,15.30
2008,05,24,11,17,15.10
2008,05,24,11,18,15.00
2008,05,24,11,19,15.00
2008,05,24,11,20,15.10
2008,05,24,11,21,15.10
2008,05,24,11,22,15.10
2008,05,24,11,23,15.20
2008,05,24,11,24,15.20
2008,05,24,11,25,15.30
2008,05,24,11,26,15.30
2008,05,24,11,27,15.50
2008,05,24,11,28,15.60
2008,05,24,11,29,15.80
2008,05,24,11,30,15.90
2008,05,24,11,31,16.10
2008,05,24,11,32,16.40
2008,05,24,11,33,16.50
2008,05,24,11,34,16.70
2008,05,24,11,35,16.90
2008,05,24,11,36,17.20
2008,05,24,11,37,17.40
2008,05,24,11,38,17.50
2008,05,24,11,39,17.70
2008,05,24,11,40,17.80
2008,05,24,11,41,17.90
2008,05,24,11,42,17.90
2008,05,24,11,43,18.10
2008,05,24,11,44,18.20
2008,05,24,11,45,18.10
2008,05,24,11,46,18.00
2008,05,24,11,47,17.90
2008,05,24,11,48,17.90
2008,05,24,11,49,17.90
2008,05,24,11,50,17.90
2008,05,24,11,51,18.00
2008,05,24,11,52,18.10
2008,05,24,11,53,18.20
2008,05,24,11,54,18.30
2008,05,24,11,55,18.50
2008,05,24,11,56,18.60
2008,05,24,11,57,18.80
2008,05,24,11,58,18.90
2008,05,24,11,59,19.10
2008,05,24,12,00,19.20
2008,05,24,12,01,19.30
2008,05,24,12,02,19.40
2008,05,24,12,03,19.50
2008,05,24,12,04,19.60
2008,05,24,12,05,19.50
2008,05,24,12,06,19.30
2008,05,24,12,07,19.10
2008,05,24,12,08,19.00
2008,05,24,12,09,18.90
2008,05,24,12,10,18.80
2008,05,24,12,11,18.60
2008,05,24,12,12,18.50
2008,05,24,12,13,18.60
2008,05,24,12,14,18.70
2008,05,24,12,15,18.80
2008,05,24,12,16,18.90
2008,05,24,12,17,18.90
2008,05,24,12,18,19.00
2008,05,24,12,19,19.10
2008,05,24,12,20,19.10
2008,05,24,12,21,19.20
2008,05,24,12,22,19.30
2008,05,24,12,23,19.40
2008,05,24,12,24,19.50
2008,05,24,12,25,19.60
2008,05,24,12,26,19.70
2008,05,24,12,27,19.90
2008,05,24,12,28,20.00
2008,05,24,12,29,20.20
2008,05,24,12,30,20.30
2008,05,24,12,31,20.40
2008,05,24,12,32,20.50
2008,05,24,12,33,20.70
2008,05,24,12,34,20.80
2008,05,24,12,35,20.80
2008,05,24,12,36,21.00
2008,05,24,12,37,21.00
2008,05,24,12,38,21.00
2008,05,24,12,39,21.10
2008,05,24,12,40,21.10
2008,05,24,12,41,21.10
2008,05,24,12,42,21.10
2008,05,24,12,43,21.10
2008,05,24,12,44,21.20
2008,05,24,12,45,21.30
2008,05,24,12,46,21.40
2008,05,24,12,47,21.40
2008,05,24,12,48,21.60
2008,05,24,12,49,21.60
2008,05,24,12,50,21.60
2008,05,24,12,51,21.60
2008,05,24,12,52,21.60
2008,05,24,12,53,21.60
2008,05,24,12,54,21.60
2008,05,24,12,55,21.60
2008,05,24,12,56,21.60
2008,05,24,12,57,21.60
2008,05,24,12,58,21.40
2008,05,24,12,59,21.40
2008,05,24,13,00,21.40
2008,05,24,13,01,21.50
2008,05,24,13,02,21.60
2008,05,24,13,03,21.40
2008,05,24,13,04,21.40
2008,05,24,13,05,21.50
2008,05,24,13,06,21.60
2008,05,24,13,07,21.60
2008,05,24,13,08,21.60
2008,05,24,13,09,21.60
2008,05,24,13,10,21.70
2008,05,24,13,11,21.80
2008,05,24,13,12,21.80
2008,05,24,13,13,21.80
2008,05,24,13,14,21.90
2008,05,24,13,15,22.00
2008,05,24,13,16,22.00
2008,05,24,13,17,22.00
2008,05,24,13,18,22.00
2008,05,24,13,19,22.00
2008,05,24,13,20,22.00
2008,05,24,13,21,22.00
2008,05,24,13,22,22.00
2008,05,24,13,23,21.90
2008,05,24,13,24,21.80
2008,05,24,13,25,21.70
2008,05,24,13,26,21.70
2008,05,24,13,27,21.80
2008,05,24,13,28,21.80
2008,05,24,13,29,21.70
2008,05,24,13,30,21.60
2008,05,24,13,31,21.60
2008,05,24,13,32,21.60
2008,05,24,13,33,21.70
2008,05,24,13,34,21.80
2008,05,24,13,35,21.90
2008,05,24,13,36,22.10
2008,05,24,13,37,22.20
2008,05,24,13,38,22.30
2008,05,24,13,39,22.40
2008,05,24,13,40,22.40
2008,05,24,13,41,22.40
2008,05,24,13,42,22.50
2008,05,24,13,43,22.60
2008,05,24,13,44,22.50
2008,05,24,13,45,22.40
2008,05,24,13,46,22.40
2008,05,24,13,47,22.50
2008,05,24,13,48,22.50
2008,05,24,13,49,22.60
2008,05,24,13,50,22.60
2008,05,24,13,51,22.60
2008,05,24,13,52,22.70
2008,05,24,13,53,22.80
2008,05,24,13,54,22.90
2008,05,24,13,55,22.90
2008,05,24,13,56,22.90
2008,05,24,13,57,23.00
2008,05,24,13,58,23.10
2008,05,24,13,59,23.00
2008,05,24,14,00,22.90
2008,05,24,14,01,22.90
2008,05,24,14,02,22.90
2008,05,24,14,03,22.90
2008,05,24,14,04,22.90
2008,05,24,14,05,22.90
2008,05,24,14,06,23.00
2008,05,24,14,07,23.10
2008,05,24,14,08,23.20
2008,05,24,14,09,23.30
2008,05,24,14,10,23.30
2008,05,24,14,11,23.30
2008,05,24,14,12,23.40
2008,05,24,14,13,23.50
2008,05,24,14,14,23.60
2008,05,24,14,15,23.70
2008,05,24,14,16,23.70
2008,05,24,14,17,23.80
2008,05,24,14,18,23.60
2008,05,24,14,19,22.90
2008,05,24,14,20,22.00
2008,05,24,14,21,21.30
2008,05,24,14,22,20.90
2008,05,24,14,23,20.50
2008,05,24,14,24,20.20
2008,05,24,14,25,19.90
2008,05,24,14,26,19.60
2008,05,24,14,27,19.00
2008,05,24,14,28,18.60
2008,05,24,14,29,18.30
2008,05,24,14,30,18.10
2008,05,24,14,31,17.80
2008,05,24,14,32,17.60
2008,05,24,14,33,17.60
2008,05,24,14,34,17.70
2008,05,24,14,35,17.90
2008,05,24,14,36,17.90
2008,05,24,14,37,17.80
2008,05,24,14,38,17.60
2008,05,24,14,39,17.50
2008,05,24,14,40,17.50
2008,05,24,14,41,17.50
2008,05,24,14,42,17.40
2008,05,24,14,43,17.30
2008,05,24,14,44,17.30
2008,05,24,14,45,17.30
2008,05,24,14,46,17.40
2008,05,24,14,47,17.70
2008,05,24,14,48,17.60
2008,05,24,14,49,17.50
2008,05,24,14,50,17.60
2008,05,24,14,51,17.70
2008,05,24,14,52,17.70
2008,05,24,14,53,17.50
2008,05,24,14,54,17.40
2008,05,24,14,55,17.30
2008,05,24,14,56,17.10
2008,05,24,14,57,17.10
2008,05,24,14,58,17.10
2008,05,24,14,59,17.10
2008,05,24,15,00,17.10
2008,05,24,15,01,17.10
2008,05,24,15,02,17.20
2008,05,24,15,03,17.40
2008,05,24,15,04,17.60
2008,05,24,15,05,17.60
2008,05,24,15,06,17.50
2008,05,24,15,07,17.70
2008,05,24,15,08,17.80
2008,05,24,15,09,17.70
2008,05,24,15,10,17.80
2008,05,24,15,11,17.90
2008,05,24,15,12,18.10
2008,05,24,15,13,18.00
2008,05,24,15,14,18.00
2008,05,24,15,15,18.00
2008,05,24,15,16,17.80
2008,05,24,15,17,17.50
2008,05,24,15,18,17.50
2008,05,24,15,19,17.50
2008,05,24,15,20,17.50
2008,05,24,15,21,17.70
2008,05,24,15,22,17.70
2008,05,24,15,23,17.70
2008,05,24,15,24,17.80
2008,05,24,15,25,17.90
2008,05,24,15,26,17.90
2008,05,24,15,27,17.90
2008,05,24,15,28,17.70
2008,05,24,15,29,17.60
2008,05,24,15,30,17.60
2008,05,24,15,31,17.50
2008,05,24,15,32,17.50
2008,05,24,15,33,17.50
2008,05,24,15,34,17.60
2008,05,24,15,35,17.60
2008,05,24,15,36,17.60
2008,05,24,15,37,17.80
2008,05,24,15,38,17.90
2008,05,24,15,39,17.90
2008,05,24,15,40,17.90
2008,05,24,15,41,17.90
2008,05,24,15,42,18.10
2008,05,24,15,43,18.40
2008,05,24,15,44,18.60
2008,05,24,15,45,18.80
2008,05,24,15,46,18.90
2008,05,24,15,47,19.10
2008,05,24,15,48,19.20
2008,05,24,15,49,19.30
2008,05,24,15,50,19.20
2008,05,24,15,51,19.20
2008,05,24,15,52,19.10
2008,05,24,15,53,19.10
2008,05,24,15,54,19.20
2008,05,24,15,55,19.20
2008,05,24,15,56,19.20
2008,05,24,15,57,19.30
2008,05,24,15,58,19.40
2008,05,24,15,59,19.30
2008,05,24,16,00,18.90
2008,05,24,16,01,18.60
2008,05,24,16,02,18.50
2008,05,24,16,03,18.40
2008,05,24,16,04,18.40
2008,05,24,16,05,18.40
2008,05,24,16,06,18.50
2008,05,24,16,07,18.50
2008,05,24,16,08,18.60
2008,05,24,16,09,18.60
2008,05,24,16,10,18.50
2008,05,24,16,11,18.50
2008,05,24,16,12,18.50
2008,05,24,16,13,18.50
2008,05,24,16,14,18.60
2008,05,24,16,15,18.60
2008,05,24,16,16,18.60
2008,05,24,16,17,18.70
2008,05,24,16,18,18.80
2008,05,24,16,19,19.00
2008,05,24,16,20,19.20
2008,05,24,16,21,19.20
2008,05,24,16,22,19.30
2008,05,24,16,23,19.30
2008,05,24,16,24,19.40
2008,05,24,16,25,19.40
2008,05,24,16,26,19.50
2008,05,24,16,27,19.60
2008,05,24,16,28,19.50
2008,05,24,16,29,19.50
2008,05,24,16,30,19.60
2008,05,24,16,31,19.70
2008,05,24,16,32,19.80
2008,05,24,16,33,19.90
2008,05,24,16,34,19.90
2008,05,24,16,35,19.90
2008,05,24,16,36,19.90
2008,05,24,16,37,19.90
2008,05,24,16,38,19.90
2008,05,24,16,39,19.90
2008,05,24,16,40,19.90
2008,05,24,16,41,19.80
2008,05,24,16,42,19.70
2008,05,24,16,43,19.70
2008,05,24,16,44,19.80
2008,05,24,16,45,19.90
2008,05,24,16,46,19.90
2008,05,24,16,47,19.90
2008,05,24,16,48,20.00
2008,05,24,16,49,20.10
2008,05,24,16,50,20.10
2008,05,24,16,51,20.00
2008,05,24,16,52,19.90
2008,05,24,16,53,19.70
2008,05,24,16,54,19.50
2008,05,24,16,55,19.50
2008,05,24,16,56,19.50
2008,05,24,16,57,19.50
2008,05,24,16,58,19.60
2008,05,24,16,59,19.70
2008,05,24,17,00,19.80
2008,05,24,17,01,19.90
2008,05,24,17,02,19.90
2008,05,24,17,03,19.90
2008,05,24,17,04,20.00
2008,05,24,17,05,20.20
2008,05,24,17,06,20.30
2008,05,24,17,07,20.40
2008,05,24,17,08,20.60
2008,05,24,17,09,20.80
2008,05,24,17,10,21.00
2008,05,24,17,11,21.10
2008,05,24,17,12,21.20
2008,05,24,17,13,21.30
2008,05,24,17,14,21.30
2008,05,24,17,15,21.30
2008,05,24,17,16,21.30
2008,05,24,17,17,21.30
2008,05,24,17,18,21.30
2008,05,24,17,19,21.20